Torna al catalogo

SL-16 DEB

AttivoLEO
NORAD 22330·DEBRIS·🇷🇺 Russia

Lanciato Dec 25, 1992 da Baikonur Cosmodrome

Loading…

Prossimi Passaggi (prossime 24 ore)

TLE

AggiornatoSource: Space-Track

Epoca: Sep 14, 2026, 15:34 UTC

1 22330U 92093T   26257.64908360  .00000192  00000-0  13082-3 0  9990
2 22330  70.4168  23.2902 0112144 251.5601 121.1080 14.09800361726739

Traccia SL-16 DEB in tempo reale con AllMySat

Download on the App Store